[[{"header":{"parameterUnit":"m.s-1","parameterCategory":1,"la1":30.2991,"la2":30.254,"lo1":-89.0895,"lo2":-89.0444,"dy":0.0017,"dx":0.0017,"nx":28,"ny":28,"refTime":"2023-09-30T09:00:00:Z","depth":0,"parameterNumber":2,"parameterNumberName":"U-component_of_WINDS"},"data":[0,0,0,0,0,0,0,0,0,0,0,0,0,0,0,0,0,0,0,0,0,0,0,0,0,0,0,0,0,0,0,0,0,0,0,0,0,0,0,0,0,0,0,0,0,0,0,0,0,0,0,0,0,0,0,0,0,0,-5.3934,-5.3934,0,-5.3944,-5.3944,-5.3945,-5.3829,-5.3826,-5.3823,-5.3819,-5.3834,-5.3837,-5.3841,0,0,0,0,0,0,0,0,0,0,0,0,0,-5.3819,-5.3822,-5.3934,-5.3934,-5.3934,-5.3944,-5.3944,-5.3945,-5.3829,-5.3826,-5.3822,-5.3818,-5.3833,-5.3837,-5.3841,0,0,0,0,0,0,0,0,0,0,0,0,0,-5.3853,-5.3823,-5.3934,-5.3878,-5.3873,-5.3944,-5.3944,-5.3945,-5.383,-5.3825,-5.3821,-5.3816,-5.3832,-5.3836,-5.3841,-5.3968,0,0,-5.3857,-5.3859,0,0,0,0,0,0,0,0,-5.3852,-5.3858,-5.3886,-5.3882,-5.3876,-5.388,-5.3909,-5.3953,-5.3831,-5.3847,-5.3819,-5.3814,-5.3854,-5.3856,-5.3869,-5.3969,-5.3969,-5.3857,-5.386,-5.3862,-5.3864,0,0,0,0,0,0,0,-5.3849,-5.3857,-5.3938,-5.3887,-5.3881,-5.3854,-5.3853,-5.3917,-5.3877,-5.3845,-5.3837,-5.3839,-5.385,-5.3864,-5.3868,-5.397,-5.3857,-5.3862,-5.3865,-5.3867,-5.4176,-5.4181,0,0,0,0,0,0,-5.3854,-5.3855,-5.3938,-5.3938,-5.3852,-5.386,-5.3859,-5.3884,-5.3876,-5.387,-5.3843,-5.3834,-5.3858,-5.3863,-5.3869,-5.4018,-5.3862,-5.3867,-5.387,-5.4171,-5.4178,-5.4183,0,0,0,0,0,0,-5.3852,-5.3862,-5.3937,-5.3895,-5.3902,-5.3867,-5.3896,-5.3887,-5.3901,-5.3874,-5.3867,-5.3865,-5.3855,-5.3861,-5.3944,-5.4017,-5.3869,-5.3874,-5.4165,-5.4173,-5.418,-5.4317,0,0,0,0,0,0,-5.3849,-5.3862,-5.3909,-5.3897,-5.3905,-5.4012,-5.39,-5.389,-5.3909,-5.3897,-5.3893,-5.3888,-5.3851,-5.3938,-5.395,-5.4021,-5.3878,-5.4158,-5.4169,-5.4178,-5.4306,-5.4328,-5.4348,0,0,0,0,0,-5.3845,-5.3947,-5.3912,-5.3922,-5.3962,-5.4016,-5.4021,-5.3976,-5.3916,-5.3963,-5.3946,-5.3888,-5.4007,-5.3947,-5.3959,-5.4034,-5.4154,-5.4166,-5.4177,-5.4296,-5.4324,-5.4347,0,0,0,0,0,0,-5.397,-5.3945,-5.3905,-5.4005,-5.4014,-5.3997,-5.4055,-5.4007,-5.4033,-5.4021,-5.3965,-5.3965,-5.4058,-5.4054,-5.3988,-5.4157,-5.407,-5.4085,-5.4156,-5.4182,-5.4203,-5.4203,-5.3882,0,0,0,0,0,-5.4009,-5.4054,-5.4029,-5.4121,-5.4127,-5.4091,-5.4113,-5.4077,-5.4084,-5.4087,-5.4077,-5.4087,-5.4127,-5.4154,-5.4189,-5.4305,-5.4303,-5.4362,-5.4383,-5.44,-5.4414,-5.4477,-5.4504,-5.4222,-5.4222,-5.4221,0,0,-5.409,-5.4082,-5.4114,-5.4146,-5.4148,-5.4197,-5.4094,-5.415,-5.4187,-5.4096,-5.4174,-5.4167,-5.4175,-5.4275,-5.4319,-5.4275,-5.4492,-5.4415,-5.4429,-5.4434,-5.4492,-5.4519,-5.4543,-5.423,-5.4228,-5.4227,0,0,-5.4263,-5.4261,-5.4337,-5.4342,-5.4347,-5.4322,-5.4341,-5.4332,-5.4323,-5.44,-5.4334,-5.4377,-5.4446,-5.4455,-5.4469,-5.4648,-5.4597,-5.4661,-5.4772,-5.4834,-5.4856,-5.4876,-5.4942,-5.4966,-5.4675,-5.4675,-5.4676,0,-5.4364,-5.4434,-5.4383,-5.4444,-5.4461,-5.4381,-5.4459,-5.4466,-5.4483,-5.4498,-5.4447,-5.4534,-5.4533,-5.4636,-5.468,-5.4693,-5.4714,-5.4662,-5.4857,-5.4876,-5.4893,-5.4956,-5.498,-5.4683,-5.4683,-5.4682,-5.4681,0,-5.4559,-5.4609,-5.4671,-5.4689,-5.4712,-5.4782,-5.4743,-5.4774,-5.4737,-5.4719,-5.48,-5.4796,-5.483,-5.4852,-5.4816,-5.4951,-5.4923,-5.4866,-5.4777,-5.4929,-5.4987,-5.501,-5.4695,-5.4692,-5.469,-5.4688,0,0,-5.4811,-5.48,-5.4823,-5.4831,-5.4832,-5.487,-5.4937,-5.4969,-5.4998,-5.5013,-5.5069,-5.513,-5.5078,-5.5094,-5.5059,-5.5114,-5.5259,-5.505,-5.5049,-5.509,-5.5409,-5.5453,-5.5481,-5.5224,-5.5228,-5.5232,-5.5409,0,-5.4981,-5.5093,-5.505,-5.5167,-5.5214,-5.5139,-5.5197,-5.5205,-5.519,-5.523,-5.5213,-5.5258,-5.5185,-5.5194,-5.5245,-5.523,-5.5322,-5.5217,-5.5278,-5.5281,-5.5279,-5.5511,-5.5557,-5.5725,-5.5431,-5.5435,-5.5437,0,-5.5194,-5.5217,-5.5339,-5.5332,-5.5351,-5.5404,-5.5431,-5.5469,-5.5477,-5.5463,-5.5482,-5.5435,-5.5503,-5.5414,-5.5508,-5.5437,-5.546,-5.5457,-5.5463,-5.5467,-5.5369,-5.5524,-5.5777,-5.5803,-5.5472,-5.5469,-5.5467,0,-5.5368,-5.5429,-5.551,-5.5519,-5.5513,-5.5553,-5.5553,-5.5556,-5.5579,-5.5604,-5.5618,-5.5651,-5.5669,-5.5697,-5.5662,-5.56,-5.5762,-5.5669,-5.5754,-5.5755,-5.5792,-5.579,-5.6053,-5.5804,-5.5804,-5.5803,-5.5803,0,-5.5563,-5.5641,-5.5588,-5.5638,-5.5724,-5.5675,-5.5761,-5.5753,-5.5757,-5.5806,-5.5743,-5.579,-5.574,-5.5784,-5.5757,-5.584,-5.5849,-5.5841,-5.5833,-5.5847,-5.5848,-5.5862,-5.585,-5.581,-5.5809,-5.5807,-5.5806,0,-5.5771,-5.5739,-5.5823,-5.5811,-5.581,-5.5874,-5.5864,-5.5912,-5.5892,-5.5955,-5.5967,-5.5938,-5.5986,-5.5954,-5.6002,-5.5984,-5.6094,-5.6069,-5.6091,-5.6085,-5.6172,-5.6165,-5.6454,-5.649,-5.6217,-5.6219,-5.6222,0,-5.5898,-5.5956,-5.5951,-5.5979,-5.5982,-5.6028,-5.6051,-5.6005,-5.6032,-5.6047,-5.6093,-5.6136,-5.6167,-5.6248,-5.6233,-5.627,-5.6247,-5.6346,-5.6252,-5.6266,-5.6251,-5.6249,-5.6255,-5.6365,-5.6369,-5.6371,-5.6373,0,-5.6128,-5.611,-5.6145,-5.6176,-5.6205,-5.6227,-5.6245,-5.6271,-5.6225,-5.626,-5.6307,-5.6332,-5.6382,-5.6426,-5.6458,-5.6459,-5.6411,-5.6403,-5.6425,-5.644,-5.6451,-5.6448,-5.6144,-5.6397,-5.6394,-5.6392,-5.6391,-5.639,-5.6301,-5.635,-5.6354,-5.6396,-5.6404,-5.6423,-5.6467,-5.6453,-5.6492,-5.6528,-5.65,-5.6558,-5.6567,-5.6604,-5.6612,-5.6659,-5.6618,-5.665,-5.6658,-5.6667,-5.668,-5.6443,-5.6664,-5.6663,-5.6663,-5.6662,-5.6661,0,-5.6529,-5.6528,-5.6568,-5.6594,-5.6628,-5.6577,-5.6594,-5.6626,-5.6678,-5.669,-5.6722,-5.6779,-5.6822,-5.6811,-5.685,-5.6889,-5.6868,-5.6901,-5.6898,-5.69,-5.6712,-5.669,-5.6918,-5.6918,-5.6918,-5.6918,-5.6918,-5.6918,-5.6652,-5.6733,-5.6715,-5.6801,-5.6799,-5.6855,-5.687,-5.6887,-5.6896,-5.6962,-5.6997,-5.6989,-5.6992,-5.7032,-5.707,-5.7065,-5.7084,-5.7126,-5.7114,-5.6938,-5.6913,-5.6889,-5.6868,-5.713,-5.713,-5.7298,-5.7299,-5.7301]},{"header":{"parameterUnit":"m.s-1","parameterCategory":1,"la1":30.2991,"la2":30.254,"lo1":-89.0895,"lo2":-89.0444,"dy":0.0017,"dx":0.0017,"nx":28,"ny":28,"refTime":"2023-09-30T09:00:00:Z","depth":0,"parameterNumber":3,"parameterNumberName":"V-component_of_WINDS"},"data":[0,0,0,0,0,0,0,0,0,0,0,0,0,0,0,0,0,0,0,0,0,0,0,0,0,0,0,0,0,0,0,0,0,0,0,0,0,0,0,0,0,0,0,0,0,0,0,0,0,0,0,0,0,0,0,0,0,0,-0.1776,-0.1777,0,-0.1816,-0.1817,-0.1817,-0.1792,-0.179,-0.1789,-0.1788,-0.1834,-0.1836,-0.1839,0,0,0,0,0,0,0,0,0,0,0,0,0,-0.1681,-0.1683,-0.1776,-0.1777,-0.1777,-0.1816,-0.1817,-0.1817,-0.1792,-0.179,-0.1789,-0.1787,-0.1833,-0.1836,-0.1839,0,0,0,0,0,0,0,0,0,0,0,0,0,-0.1722,-0.1684,-0.1776,-0.1769,-0.1769,-0.1816,-0.1817,-0.1817,-0.1792,-0.179,-0.1788,-0.1787,-0.1832,-0.1836,-0.1839,-0.1897,0,0,-0.185,-0.1851,0,0,0,0,0,0,0,0,-0.172,-0.1726,-0.177,-0.177,-0.1769,-0.1797,-0.18,-0.1844,-0.1793,-0.1783,-0.1788,-0.1786,-0.1823,-0.1828,-0.1839,-0.1899,-0.1901,-0.185,-0.1852,-0.1854,-0.1855,0,0,0,0,0,0,0,-0.1717,-0.1724,-0.1792,-0.177,-0.177,-0.1765,-0.1769,-0.1808,-0.1813,-0.1784,-0.1782,-0.1787,-0.1823,-0.1836,-0.184,-0.1902,-0.185,-0.1853,-0.1855,-0.1857,-0.2012,-0.2014,0,0,0,0,0,0,-0.1714,-0.1722,-0.1791,-0.1793,-0.1739,-0.1768,-0.1772,-0.179,-0.1813,-0.1814,-0.1789,-0.1786,-0.1831,-0.1836,-0.1842,-0.1912,-0.1854,-0.1857,-0.1859,-0.201,-0.2012,-0.2015,0,0,0,0,0,0,-0.1712,-0.1721,-0.1789,-0.1757,-0.1765,-0.1772,-0.1792,-0.1792,-0.1804,-0.1816,-0.1817,-0.1801,-0.1829,-0.1837,-0.1883,-0.1913,-0.1859,-0.1862,-0.2008,-0.2011,-0.2014,-0.2053,0,0,0,0,0,0,-0.171,-0.172,-0.1741,-0.1758,-0.1767,-0.1829,-0.1793,-0.1794,-0.181,-0.1807,-0.1828,-0.1829,-0.1829,-0.1878,-0.1887,-0.1917,-0.1865,-0.2005,-0.2009,-0.2013,-0.2049,-0.2057,-0.2064,0,0,0,0,0,-0.1706,-0.1752,-0.1743,-0.1751,-0.1794,-0.1831,-0.1837,-0.1834,-0.1812,-0.1835,-0.1842,-0.1829,-0.1908,-0.1883,-0.1893,-0.1925,-0.2003,-0.2008,-0.2012,-0.2046,-0.2055,-0.2063,0,0,0,0,0,0,-0.1741,-0.1754,-0.1744,-0.1796,-0.1812,-0.1827,-0.1855,-0.1844,-0.1868,-0.1864,-0.186,-0.1865,-0.1914,-0.1923,-0.1896,-0.1982,-0.1952,-0.1959,-0.1975,-0.1984,-0.1991,-0.1989,-0.1868,0,0,0,0,0,-0.1754,-0.1782,-0.1792,-0.1837,-0.1846,-0.1849,-0.1865,-0.1861,-0.1878,-0.1886,-0.1897,-0.1916,-0.1945,-0.1964,-0.1992,-0.2049,-0.2054,-0.2076,-0.2083,-0.2089,-0.2096,-0.2128,-0.2138,-0.203,-0.203,-0.2029,0,0,-0.1783,-0.1793,-0.1812,-0.1844,-0.1857,-0.1887,-0.1855,-0.1889,-0.1912,-0.1891,-0.1936,-0.1944,-0.1965,-0.2018,-0.2042,-0.2027,-0.2126,-0.2095,-0.2099,-0.2103,-0.2134,-0.2144,-0.2153,-0.2033,-0.2032,-0.2032,0,0,-0.1852,-0.1861,-0.19,-0.1913,-0.1931,-0.1932,-0.1941,-0.1957,-0.1961,-0.2006,-0.1991,-0.2019,-0.2069,-0.2084,-0.2099,-0.2171,-0.2161,-0.218,-0.222,-0.2251,-0.226,-0.2268,-0.2296,-0.2305,-0.2186,-0.2186,-0.2186,0,-0.1886,-0.193,-0.1922,-0.1957,-0.1972,-0.1952,-0.1993,-0.2005,-0.2032,-0.2044,-0.2027,-0.2089,-0.2101,-0.2158,-0.2175,-0.2187,-0.2199,-0.218,-0.2259,-0.2267,-0.2274,-0.23,-0.2311,-0.2189,-0.2188,-0.2188,-0.2188,0,-0.1972,-0.2002,-0.2032,-0.2057,-0.2075,-0.2112,-0.2111,-0.2131,-0.2124,-0.2128,-0.2173,-0.2187,-0.2217,-0.223,-0.2224,-0.2286,-0.2276,-0.2259,-0.223,-0.2287,-0.2312,-0.2322,-0.2192,-0.2191,-0.2191,-0.219,0,0,-0.2067,-0.2085,-0.2096,-0.2107,-0.2125,-0.215,-0.2186,-0.2213,-0.2231,-0.225,-0.2282,-0.2323,-0.2307,-0.2323,-0.2319,-0.2346,-0.2405,-0.2326,-0.2326,-0.2342,-0.2476,-0.2491,-0.2503,-0.2396,-0.2398,-0.24,-0.2475,0,-0.2138,-0.22,-0.2194,-0.2254,-0.2283,-0.2263,-0.2295,-0.231,-0.2314,-0.234,-0.2344,-0.2375,-0.235,-0.236,-0.2385,-0.2393,-0.2432,-0.2386,-0.2429,-0.243,-0.2427,-0.2516,-0.2532,-0.2602,-0.2484,-0.2486,-0.2487,0,-0.2231,-0.2251,-0.2314,-0.2327,-0.2339,-0.2367,-0.2392,-0.2416,-0.2433,-0.2434,-0.2451,-0.2442,-0.248,-0.2447,-0.25,-0.2469,-0.2485,-0.2491,-0.2494,-0.2501,-0.2465,-0.2527,-0.2624,-0.2636,-0.2502,-0.2501,-0.25,0,-0.2297,-0.2339,-0.2382,-0.2392,-0.2408,-0.2429,-0.2437,-0.2451,-0.2468,-0.249,-0.2501,-0.2527,-0.2543,-0.2564,-0.2562,-0.2538,-0.2617,-0.2584,-0.2621,-0.2621,-0.2642,-0.2641,-0.2746,-0.2647,-0.2647,-0.2646,-0.2646,0,-0.2379,-0.2419,-0.2412,-0.2439,-0.2483,-0.2475,-0.2519,-0.2525,-0.2537,-0.2566,-0.255,-0.2578,-0.2573,-0.26,-0.2599,-0.2645,-0.2651,-0.2654,-0.2654,-0.2658,-0.2658,-0.2671,-0.2667,-0.2649,-0.2649,-0.2648,-0.2648,0,-0.2462,-0.2459,-0.2505,-0.2515,-0.2518,-0.2551,-0.256,-0.2586,-0.2587,-0.2624,-0.2632,-0.2634,-0.2666,-0.2666,-0.2702,-0.2701,-0.2758,-0.2751,-0.2752,-0.2752,-0.279,-0.2788,-0.291,-0.2926,-0.2814,-0.2815,-0.2816,0,-0.2516,-0.2546,-0.2559,-0.2576,-0.2585,-0.2613,-0.2629,-0.2621,-0.264,-0.266,-0.2685,-0.2714,-0.2738,-0.279,-0.2796,-0.2824,-0.2819,-0.286,-0.2824,-0.2826,-0.2823,-0.2823,-0.2827,-0.2868,-0.287,-0.2871,-0.2872,0,-0.2614,-0.261,-0.2634,-0.2658,-0.2678,-0.2696,-0.2713,-0.2728,-0.2722,-0.2744,-0.2775,-0.2793,-0.283,-0.286,-0.2887,-0.2896,-0.2884,-0.2882,-0.2893,-0.2898,-0.2899,-0.2902,-0.2775,-0.288,-0.288,-0.2879,-0.2878,-0.2878,-0.2686,-0.2712,-0.2725,-0.2752,-0.2763,-0.2779,-0.2804,-0.2807,-0.2833,-0.2861,-0.2855,-0.289,-0.2906,-0.294,-0.2952,-0.2981,-0.2967,-0.2981,-0.2986,-0.299,-0.2996,-0.2891,-0.2985,-0.2985,-0.2985,-0.2984,-0.2984,0,-0.2785,-0.2792,-0.2817,-0.284,-0.2862,-0.2844,-0.2862,-0.2882,-0.2913,-0.2928,-0.2951,-0.2987,-0.3016,-0.3024,-0.3052,-0.3074,-0.3069,-0.3082,-0.3082,-0.3085,-0.3005,-0.2995,-0.3085,-0.3085,-0.3085,-0.3085,-0.3085,-0.3085,-0.284,-0.2883,-0.2881,-0.293,-0.2936,-0.297,-0.2982,-0.2997,-0.3009,-0.305,-0.3073,-0.3076,-0.3089,-0.3118,-0.3144,-0.3145,-0.3158,-0.3174,-0.3174,-0.31,-0.309,-0.3081,-0.3071,-0.3176,-0.3176,-0.3251,-0.3252,-0.3252]}]]